Regional Weather Roundup
Issued by NWS

Home | Current Version | Previous Version | Graphics & Text | Print | Product List | Glossary Off
Versions: 1 2 3 4 5 6 7 8 9 10 11 12 13 14 15 16 17 18 19 20 21 22 23 24 25 26 27 28 29 30 31 32 33 34 35 36 37 38 39 40 41 42 43 44 45 46 47 48 49 50

000
ASUS43 KLSX 091210
RWRMO

WEATHER SUMMARY FOR MISSOURI
NATIONAL WEATHER SERVICE SPRINGFIELD MO
600 AM CST TUE FEB 09 2016

NOTE: "FAIR" INDICATES FEW OR NO CLOUDS BELOW 12,000 FEET WITH NO
       SIGNIFICANT WEATHER AND/OR OBSTRUCTIONS TO VISIBILITY.
       CURRENT SKY AND/OR WEATHER CONDITIONS ARE NOT AVAILABLE FOR
       CHILLICOTHE AND FARMINGTON.

MOZ001>031-035>038-043-044-053-054-091300-
...NORTHERN AND WESTERN MISSOURI...

CITY           SKY/WX    TMP DP  RH WIND       PRES   REMARKS
KANSAS CTY INT CLEAR     19  11  70 N17       30.08R WCI   4
6HR MIN TEMP:  19; 6HR MAX TEMP:  28;

KANSAS C DTWN  CLEAR     24   9  52 N15G25    30.09R WCI  11
6HR MIN TEMP:  24; 6HR MAX TEMP:  30;

LEE`S SUMMIT   CLEAR     21  10  62 N20G25    30.07R WCI   6
6HR MIN TEMP:  21; 6HR MAX TEMP:  27;

ST JOSEPH      PTCLDY    17   8  67 N23G32    30.13R WCI  -1
6HR MIN TEMP:  17; 6HR MAX TEMP:  27;

CHILLICOTHE      N/A     16   7  67 NW10G23   30.08R WCI   4
6HR MIN TEMP:  16; 6HR MAX TEMP:  23;

KIRKSVILLE     FLURRIES  14   4  64 NW15G26   30.01R WCI  -1
6HR MIN TEMP:  14; 6HR MAX TEMP:  20; 6HR PCP: TRACE;


$$
MOZ066>068-077>081-088>096-101>105-091300-
...SOUTHWEST MISSOURI...

CITY           SKY/WX    TMP DP  RH WIND       PRES   REMARKS
SPRINGFIELD    CLEAR     25  15  66 NW9       29.99R WCI  15
6HR MIN TEMP:  25; 6HR MAX TEMP:  28;

JOPLIN         CLEAR     27  19  72 W12       30.08R WCI  17
6HR MIN TEMP:  27; 6HR MAX TEMP:  31;


$$
MOZ032>034-039>042-045>050-055>058-069>072-091300-
...CENTRAL MISSOURI...

CITY           SKY/WX    TMP DP  RH WIND       PRES   REMARKS
COLUMBIA       CLOUDY    18   7  62 NW18G26   29.99R WCI   2
6HR MIN TEMP:  18; 6HR MAX TEMP:  24; 6HR PCP: TRACE;

JEFFERSON CITY CLOUDY    19   7  59 NW16G30   30.02R WCI   4
6HR MIN TEMP:  19; 6HR MAX TEMP:  26; 6HR PCP: TRACE;

ROLLA          FLURRIES  19  11  70 NW21      29.92R WCI   3
6HR MIN TEMP:  19; 6HR MAX TEMP:  23; 6HR PCP: TRACE;

SEDALIA        CLOUDY    21  11  65 NW21      30.04R WCI   5
6HR MIN TEMP:  21; 6HR MAX TEMP:  25;

WHITEMAN AFB   FLURRIES  21  10  63 N20       30.03R WCI   5
WARRENSBURG    CLEAR     21  10  63 NW16G31   30.06R WCI   7
OSAGE BEACH    CLOUDY    21   9  58 NW14G30   30.00R WCI   8

$$
MOZ051-052-059>065-091300-
...EAST CENTRAL MISSOURI...

CITY           SKY/WX    TMP DP  RH WIND       PRES   REMARKS
ST LOUIS INTL  FLURRIES  21  14  74 NW9       29.92R WCI  11
6HR MIN TEMP:  21; 6HR MAX TEMP:  23; 6HR PCP:  0.01;

SPIRIT OF STL  FLURRIES  21  17  84 NW8       29.93R WCI  11
6HR MIN TEMP:  20; 6HR MAX TEMP:  22; 6HR PCP: TRACE;

ST CHARLES     LGT SNOW  20  13  74 NW18      29.94R WCI   5
6HR MIN TEMP:  20; 6HR MAX TEMP:  22; 6HR PCP: TRACE;


$$
MOZ072>076-082>087-097>100-106>115-091300-
...SOUTH CENTRAL AND SOUTHEAST MISSOURI...

CITY           SKY/WX    TMP DP  RH WIND       PRES   REMARKS
CAPE GIRARDEAU LGT SNOW  22  16  78 NW6       29.93R WCI  14
6HR MIN TEMP:  22; 6HR MAX TEMP:  28; 6HR PCP: TRACE;

FARMINGTON     LGT SNOW  20  16  84 N7        29.90R FOG     WCI  11
6HR MIN TEMP:  20; 6HR MAX TEMP:  22; 6HR PCP: TRACE;

POPLAR BLUFF   CLOUDY    28  17  63 CALM      29.93R
6HR MIN TEMP:  28; 6HR MAX TEMP:  30;

WEST PLAINS    CLEAR     24  11  57 NW13G25   29.93R WCI  12
6HR MIN TEMP:  24; 6HR MAX TEMP:  28;


$$




USA.gov is the U.S. government's official web portal to all federal, state and local government web resources and services.